Location: Unspecified
(0.0000°N, 0.0000°E)
Time: 20:04:21
(UTC+00:00)

A-11 Canister half - Visible Passes

Search period start: 14 July 2020 00:00
Search period end: 24 July 2020 00:00
Orbit: 1513 x 1686 km, 47.2° (Epoch: 14 July)

Date Brightness Start Highest point End Pass type
(mag) Time Alt. Az. Time Alt. Az. Time Alt. Az.
14 Jul 10.8 20:41:05 10° SSW 20:41:40 12° SSW 20:41:40 12° SSW visible
15 Jul 10.4 20:18:23 10° SSW 20:21:05 20° S 20:21:05 20° S visible
15 Jul11.622:43:53NNE22:43:53NNE22:19:23SWvisible
16 Jul 9.9 19:55:42 10° SSW 20:00:48 27° SSE 20:00:48 27° SSE visible
16 Jul11.222:21:11NNE22:21:11NNE21:59:08SWvisible
17 Jul 9.6 19:33:02 10° S 19:40:54 30° SE 19:40:54 30° SE visible
17 Jul 10.6 21:36:26 10° SW 21:58:15 - NNE 21:39:16 22° WSW visible
18 Jul 9.7 19:10:24 10° S 19:18:10 28° SE 19:21:38 23° E visible
18 Jul 9.6 21:13:27 10° SW 21:34:51 - NNE 21:20:04 47° WSW visible
19 Jul 9.8 18:47:49 10° S 18:55:12 25° SE 19:02:44 10° E visible
19 Jul 9.2 20:50:28 10° SW 21:00:02 69° NW 21:02:22 54° N visible
19 Jul 11.3 23:07:55 11° NNW 23:07:55 11° NNW 23:09:18 10° NNW visible
20 Jul 9.9 18:25:16 10° S 18:32:15 23° SE 18:39:21 10° E visible
20 Jul 9.1 20:27:31 10° SW 20:37:06 75° NW 20:47:03 10° NE visible
20 Jul 11.2 22:38:02 10° WNW 22:42:35 14° NW 22:47:12 10° NNW visible
21 Jul 9.0 20:04:35 10° SW 20:14:10 81° NW 20:24:08 10° NE visible
21 Jul 11.1 22:14:18 10° WNW 22:19:33 16° NW 22:24:54 10° NNW visible
22 Jul 9.0 19:41:41 10° SW 19:51:15 87° NW 20:01:11 10° NE visible
22 Jul 11.1 21:50:42 10° W 21:56:31 17° NW 22:02:29 10° N visible
23 Jul 9.0 19:18:48 10° SW 19:28:20 87° SE 19:38:15 10° NE visible
23 Jul 11.0 21:27:12 10° W 21:33:31 19° NW 21:40:00 10° N visible
